STARLINK-32124, 60298

Orbit data source: Space-Track

STARLINK-32124, 60298 is a payload satellite owned by SpaceX/Seattle (US) in LEO that was launched on Sun, 28 Jul 2024 UTC via an FALCON 9 launch vehicle from the Air Force Eastern Test Range (AFETR). Payload-class satellites include a variety of spacecraft equipped with specific instruments for various scientific and technological missions. These include communications satellites like Starlink; space stations such as the ISS; scientific satellites like the Hubble; Earth observation satellites from companies like Planet Labs, Umbra, and HawkEye 360; GPS; miniature CubeSats for education and research; and military/defense satellites.

Loading next visibility...
Identifier
60298, 2024-132W
Orbit
LEO
Last TLE update
20 hours ago
Origin
Manufacturer
SpaceX/Seattle
Mission
Operational spacecraft
Bus & Motor
STARLINK V2M, Unknown motor
Mass
730 kg wet, ~700 kg dry
Launch date (UTC)
2024-07-28 (9 months ago)
Launch vehicle
FALCON 9
Launch site
Air Force Eastern Test Range (AFETR)
Object type
Payload
Rocket body
Debris
Shape & HBR
Unknown
Radar Cross Section
Large (>1 m²)

Expand to show TLE details & history

TLE from 20 hours ago
0 STARLINK-32124
1 60298U 24132W   25128.97255344  .00000232  00000-0  19967-4 0  9997
2 60298  53.1619  28.0397 0001179  95.6542 264.4594 15.30190647 44907
Epoch: 2025-05-08T23:20Z
Definitive object data (Epoch: 2025-05-08T23:20:28.617Z)
Latitude
0.00005°
Longitude
170.88512°
Altitude
476.221 km
Speed
7.629 km/s
True Right ascension
01h 52m 09s
True Declination
0° 00' 00"
Sunlit
Object was in daylight at TLE epoch
Visualization TLE readout
Latitude
15.48344°
Longitude
-24.80139°
Altitude
475.067 km
Speed
7.631 km/s
Apparent Right ascension
13h 45m 32s
Apparent Declination
-11° 31' 58"
Sunlit
Object is in full shadow
Visualization observer readout
Local Sidereal Time
03:01:53
Azimuth
36.013° NE
Elevation
-56.979°
Doppler factor
1
Orbital elements
Apogee altitude
476.307 km
Perigee altitude
474.691 km
Semi-major axis
6,853.636 km
Eccentricity
0.0001179
Inclination
53.1619°
RAAN
28.0397°
Arg. of periapsis
95.6542°
True anomaly
264.44595°
Mean anomaly
264.4594°
Eccentric anomaly
264.45268°
Mean motion
3.82527 °/min
BSTAR
0.000019967
Orbital period
94.11 mins
Loading maneuver chart data...
Loading SW <> Apogee altitude chart data...
Loading historical data...
Loading historical data...
Loading historical data...
Loading historical data...
Loading historical data...
Loading historical data...
Loading historical data...

STARLINK-32124 Visibility forecast

Observer location: undefined°, undefined°

Span
Click to sort rows by Start time (UTC) header in descending order
Start Az.
Max El. time (UTC)
Max El. Az.
Max El.
End time (UTC)
End Az.
6 mins2025-05-09 19:54:01.493Z226.602° WSW2025-05-09 19:57:01.493Z96.745° ESE44.783°2025-05-09 20:00:01.493Z51.292° ENE
5 mins2025-05-10 02:30:01.493Z319.21° NNW2025-05-10 02:32:01.493Z42.194° NE43.23°2025-05-10 02:35:01.493Z121.743° SE
|